Hourly Data Report for October 02, 2015

All times are specified in Local Standard Time (LST). Add 1 hour to adjust for Daylight Saving Time where and when it is observed.

IQALUIT CLIMATE
NUNAVUT

63°44'50.000" N
68°32'40.000" W
33.50 m
2402592
71321
XFB

Download Data

Hourly Data (October 2015)
Hourly Data Report for October 2, 2015
Temp Definition
°C
Dew Point Temp Definition
°C
Rel Hum Definition
%
Wind Dir Definition
10's deg

Wind Spd Definition
km/h
Visibility Definition
km
Stn Press Definition
kPa
Hmdx Definition


Wind Chill Definition


Weather Definition


TIME
00:00 3.0 -1.6 71 22 14   102.63     LegendNANA
01:00 2.1 -1.4 78 15 4   102.58     LegendNANA
02:00 2.8 -1.2 75 19 6   102.49     LegendNANA
03:00 2.6 -0.8 79 24 4   102.45     LegendNANA
04:00 2.9 -0.8 77 31 15   102.45     LegendNANA
05:00 3.2 -1.0 74 31 8   102.46     LegendNANA
06:00 2.1 0.3 88 31 5   102.47     LegendNANA
07:00 2.8 0.4 84 7 8   102.47     LegendNANA
08:00 3.1 0.7 84 29 8   102.46     LegendNANA
09:00 3.6 1.2 84 32 18   102.51     LegendNANA
10:00 4.1 1.7 84 31 18   102.54     LegendNANA
11:00 4.6 1.9 83 31 18   102.60     LegendNANA
12:00 4.6 1.8 82 33 29   102.64     LegendNANA
13:00 4.2 1.6 83 32 22   102.68     LegendNANA
14:00 4.1 1.0 80 32 23   102.75     LegendNANA
15:00 3.4 -0.7 75 31 21   102.79     LegendNANA
16:00 2.0 -0.9 81 33 14   102.86     LegendNANA
17:00 1.8 -1.0 82 33 8   102.89     LegendNANA
18:00 0.9 -0.8 89 30 9   102.90     LegendNANA
19:00 0.9 -1.8 82 33 10   102.96     LegendNANA
20:00 0.7 -1.6 85 33 7   102.95     LegendNANA
21:00 -0.8 -2.5 88 34 8   102.95   -4 LegendNANA
22:00 -0.4 -2.4 86 32 2   102.90   -1 LegendNANA
23:00 0.1 -2.0 85 31 5   102.86     LegendNANA

Notes on Data Quality.

Legend

  • E = Estimated
  • M = Missing
  • NA = Not Available
  • ‡ = Partner data that is not subject to review by the National Climate Archives
Date modified: